Regional Weather Roundup
Issued by NWS Northern Indiana

Home | Current Version | Previous Version | Text Only | Print | Product List | Glossary Off
Versions: 1 2 3 4 5 6 7 8 9 10 11 12 13 14 15 16 17 18 19 20 21 22 23 24 25 26 27 28 29 30 31 32 33 34 35 36 37 38 39 40 41 42 43 44 45 46 47 48 49 50

148
ASUS43 KIWX 291710
RWRIWX

KIWX WEATHER ROUNDUP
NATIONAL WEATHER SERVICE NORTHERN INDIANA
100 PM EDT THU SEP 29 2016

NOTE: "FAIR" INDICATES FEW OR NO CLOUDS BELOW 12,000 FEET WITH NO
SIGNIFICANT WEATHER AND/OR OBSTRUCTIONS TO VISIBILITY.

* THESE STATIONS ARE NOT UNDER NWS QUALITY CONTROL. THEY ALSO MAY NOT
  REPORT WEATHER SUCH AS PRECIPITATION OR FOG.

INZ001>027-291800-
NORTHERN INDIANA

CITY           SKY/WX    TMP DP  RH WIND       PRES   REMARKS
GARY*          LGT RAIN  64  61  88 NE12G23   30.16R
VALPARAISO     CLOUDY    61  58  90 N8        30.15R
MICHIGAN CITY* CLOUDY    61  61 100 CALM      30.15S
LAPORTE*       DRIZZLE  N/A N/A N/A NE7       30.15S
KNOX*          CLOUDY    61  50  67 NE6       30.13S
SOUTH BEND     PTSUNNY   64  60  87 NE9       30.14S
ELKHART*       PTSUNNY  N/A N/A N/A NE14      30.13S
GOSHEN         MOSUNNY   67  57  70 E14       30.13R
MONTICELLO*    CLOUDY    65  51  60 NE6       30.11S
LOGANSPORT*    PTSUNNY   63  52  67 NE8       30.12S
ROCHESTER*     MOSUNNY   68  59  73 E7        30.12S
WARSAW*        PTSUNNY   64  50  59 E7        30.12S
ANGOLA*          N/A     63  54  72 E9        30.14R
FORT WAYNE     PTSUNNY   63  53  70 NE9       30.12S
HUNTINGTON*    CLOUDY    64  53  67 E6        30.11F
MARION*        MOSUNNY   63  51  64 E9        30.11S

$$
INZ028>050-291800-
CENTRAL INDIANA

CITY           SKY/WX    TMP DP  RH WIND       PRES   REMARKS
LAFAYETTE      CLOUDY    64  57  78 NE8       30.11R
KOKOMO*        CLOUDY    62  53  72 NE12      30.11S
MUNCIE*        PTSUNNY   64  52  64 NE8       30.09F
INDIANAPOLIS   PTSUNNY   64  54  69 NE8       30.08F

$$
MIZ043>046-050>051-056>058-064>065-071>073-077>080-291800-
SOUTHWEST LOWER MICHIGAN

CITY           SKY/WX    TMP DP  RH WIND       PRES   REMARKS
BATTLE CREEK   CLOUDY    63  59  87 NE14G22   30.17S
BENTON HARBOR  CLOUDY    63  59  87 NE8       30.16S
COLDWATER*     CLOUDY    65  58  78 E10G21    30.15S
HILLSDALE*     CLOUDY    63  57  82 E12       30.15S
HOLLAND        LGT RAIN  62  58  86 NE13G22   30.21R
GRAND RAPIDS   LGT RAIN  60  57  89 NE17      30.22R
KALAMAZOO      CLOUDY    64  57  78 VRB7      30.18R
STURGIS*       CLOUDY    66  57  72 E10G16    30.13S
THREE RIVERS*  CLOUDY    65  59  80 NE14G22   30.15R

$$
OHZ001>008-015>018-024>025-291800-
NORTHWEST OHIO

CITY           SKY/WX    TMP DP  RH WIND       PRES   REMARKS
WAUSEON*       CLOUDY    61  57  88 NE9       30.15S
DEFIANCE       PTSUNNY   66  54  65 NE10      30.13S
FINDLAY        CLOUDY    64  54  69 NE8       30.12S
TOLEDO EXPRESS CLOUDY    60  59  96 NE6       30.15S
TOLEDO METCALF CLOUDY    64  58  80 NE8       30.15F
LIMA           PTSUNNY   66  54  65 E8        30.10S

$$
AND FOR LAKE MICHIGAN COASTAL AND OPEN LAKE BUOY OBSERVATIONS

STATION/POSITION TEMP    WIND        PRES    VSBY  WAVE
                 AIR SEA DIR/SP/G                  HT/PER
                 (F)     (DEG/KT/KT) (MB)    (MI)  (FT/S)
CALUMET HARBOR    61      30/ 17/ 22 1021.0R
MICHIGAN CITY     61      30/ 23/ 25   N/A
BURNS HARBOR      62      50/ 22     1021.0
SAINT JOSEPH      62      30/  3/  8 1022.0
SOUTH LAKE BUOY   64 69   50/ 21/ 27 1022.1R         7/ 6
4 MI NW BRIDGMAN  61 64   30/ 12/ 16 1021.4          5/ 7
MICHIGAN CITY     62 65   40/ 17/ 23   N/A           8/ 7

$$
&&




USA.gov is the U.S. government's official web portal to all federal, state and local government web resources and services.